User: anonymous   Login
Location: Unspecified
(0.0000°N, 0.0000°E)
Time: 06:58:28
(UTC+00:00)
Language:

SICH 2 - Orbit

View from above orbital plane
View from above orbital plane
View from above satellite
View from above satellite

Ground track
Ground track

The orbit data is extracted from the following two-line orbital elements,

1 37794U 11044G   17202.90908801 +.00000069 +00000-0 +23048-4 0  9993
2 37794 098.0714 278.3842 0012817 006.0048 105.3524 14.61701178316020
Epoch (UTC): 21 July 2017 21:49:05
Eccentricity: 0.0012817
inclination: 98.0714°
perigee height: 678 km
apogee height: 697 km
right ascension of ascending node: 278.3842°
argument of perigee: 6.0048°
revolutions per day: 14.61701178
mean anomaly at epoch: 105.3524°
orbit number at epoch: 31602

The dashed part of the orbit path shows where the satellite is in the earth's shadow,  

DLR